When you browse on this site, cookies collect data to enhance your experience and personalize the content and advertising you see.
Visit our Privacy Policy to learn more. By continuing to use the site, you agree to this use of cookies and data.
  • In United Kingdom
  • List of Countries
  • For 7 days
  • Water Temperature
  • Satellite Maps
  • Weather Map
  • Weather Widgets
  • user-avatar
    Login

    Hourly Weather Hrazdan

    Today, 22 March, Friday

    Time Temperature Precipitation Wind Pressure Humidity
    00:00 -1°C° 0 mm 1 mps 611 mmHg 87%
    01:00 -1°C° 0 mm 1 mps 611 mmHg 87%
    02:00 -1°C° 0 mm 1 mps 611 mmHg 87%
    03:00 -2°C° 0 mm 2 mps 611 mmHg 90%
    04:00 -1°C° 0 mm 1 mps 611 mmHg 91%
    05:00 -1°C° 0 mm 1 mps 611 mmHg 91%
    06:00 -1°C° 0 mm 1 mps 611 mmHg 91%
    07:00 0°C° 0 mm 1 mps 611 mmHg 89%
    08:00 +1°C° 0 mm 1 mps 612 mmHg 86%
    09:00 +2°C° 0 mm 1 mps 612 mmHg 84%
    10:00 +2°C° 0.1 mm 1 mps 611 mmHg 84%
    11:00 +2°C° 0.1 mm 2 mps 611 mmHg 85%
    12:00 +2°C° 0.1 mm 2 mps 611 mmHg 85%
    13:00 +2°C° 0.2 mm 2 mps 611 mmHg 82%
    14:00 +3°C° 0.2 mm 2 mps 611 mmHg 79%
    15:00 +3°C° 0.2 mm 2 mps 610 mmHg 77%
    16:00 +2°C° 0.1 mm 2 mps 610 mmHg 76%
    17:00 +2°C° 0.1 mm 1 mps 610 mmHg 75%
    18:00 +1°C° 0.1 mm 1 mps 609 mmHg 75%
    19:00 0°C° 0 mm 1 mps 610 mmHg 76%
    20:00 -1°C° 0 mm 1 mps 610 mmHg 76%
    21:00 -2°C° 0 mm 1 mps 610 mmHg 77%
    22:00 -2°C° 0 mm 1 mps 610 mmHg 76%
    23:00 -3°C° 0 mm 1 mps 610 mmHg 75%

    Tomorrow, 23 March, Saturday

    Time Temperature Precipitation Wind Pressure Humidity
    00:00 -3°C° 0 mm 1 mps 610 mmHg 73%
    01:00 -3°C° 0 mm 1 mps 610 mmHg 74%
    02:00 -3°C° 0 mm 1 mps 610 mmHg 74%
    03:00 -4°C° 0 mm 1 mps 610 mmHg 74%
    04:00 -4°C° 0 mm 1 mps 609 mmHg 75%
    05:00 -4°C° 0 mm 1 mps 609 mmHg 76%
    06:00 -6°C° 0 mm 2 mps 609 mmHg 77%
    07:00 -5°C° 0 mm 2 mps 609 mmHg 75%
    08:00 -3°C° 0 mm 2 mps 610 mmHg 72%
    09:00 -2°C° 0 mm 2 mps 610 mmHg 70%
    10:00 -1°C° 0 mm 3 mps 609 mmHg 66%
    11:00 0°C° 0 mm 3 mps 609 mmHg 62%
    12:00 +1°C° 0 mm 3 mps 609 mmHg 58%
    13:00 +1°C° 0 mm 3 mps 608 mmHg 57%
    14:00 +1°C° 0 mm 3 mps 608 mmHg 56%
    15:00 +1°C° 0 mm 3 mps 608 mmHg 55%
    16:00 +1°C° 0 mm 3 mps 607 mmHg 58%
    17:00 +1°C° 0 mm 2 mps 607 mmHg 62%
    18:00 -1°C° 0 mm 2 mps 606 mmHg 66%
    19:00 0°C° 0 mm 1 mps 606 mmHg 67%
    20:00 0°C° 0 mm 1 mps 607 mmHg 68%
    21:00 -1°C° 0 mm 1 mps 607 mmHg 69%
    22:00 -1°C° 0 mm 1 mps 606 mmHg 69%
    23:00 -1°C° 0 mm 1 mps 606 mmHg 69%

    Day after tomorrow, 24 March, Sunday

    Time Temperature Precipitation Wind Pressure Humidity
    00:00 -1°C° 0 mm 1 mps 606 mmHg 69%
    01:00 -1°C° 0.1 mm 1 mps 606 mmHg 71%
    02:00 -1°C° 0.1 mm 1 mps 606 mmHg 73%
    03:00 -1°C° 0.1 mm 1 mps 605 mmHg 75%
    04:00 -1°C° 0.1 mm 1 mps 605 mmHg 77%
    05:00 -1°C° 0.1 mm 1 mps 605 mmHg 80%
    06:00 -1°C° 0.1 mm 1 mps 604 mmHg 82%
    07:00 0°C° 0.1 mm 1 mps 605 mmHg 80%
    08:00 -1°C° 0.1 mm 2 mps 605 mmHg 77%
    09:00 +1°C° 0.1 mm 2 mps 605 mmHg 74%
    10:00 +2°C° 0.1 mm 2 mps 605 mmHg 75%
    11:00 +3°C° 0.1 mm 2 mps 605 mmHg 75%
    12:00 +3°C° 0.1 mm 2 mps 605 mmHg 75%
    13:00 +3°C° 0.6 mm 2 mps 604 mmHg 78%
    14:00 +3°C° 0.6 mm 2 mps 604 mmHg 80%
    15:00 +3°C° 0.6 mm 2 mps 604 mmHg 83%
    16:00 +2°C° 1 mm 2 mps 604 mmHg 85%
    17:00 +1°C° 1 mm 2 mps 604 mmHg 87%
    18:00 -1°C° 1 mm 2 mps 604 mmHg 89%
    19:00 -1°C° 1 mm 2 mps 605 mmHg 90%
    20:00 -2°C° 1 mm 2 mps 605 mmHg 90%
    21:00 -2°C° 1 mm 2 mps 605 mmHg 91%
    22:00 -2°C° 0.6 mm 2 mps 605 mmHg 91%
    23:00 -3°C° 0.6 mm 2 mps 605 mmHg 91%

    25 March, Monday

    Time Temperature Precipitation Wind Pressure Humidity
    00:00 -3°C° 0.6 mm 2 mps 605 mmHg 90%
    01:00 -3°C° 0.2 mm 2 mps 605 mmHg 90%
    02:00 -4°C° 0.2 mm 2 mps 605 mmHg 90%
    03:00 -4°C° 0.2 mm 2 mps 605 mmHg 90%
    04:00 -4°C° 0.1 mm 2 mps 605 mmHg 90%
    05:00 -4°C° 0.1 mm 2 mps 605 mmHg 90%
    06:00 -4°C° 0.1 mm 2 mps 605 mmHg 90%
    07:00 -2°C° 0 mm 2 mps 605 mmHg 89%
    08:00 -1°C° 0 mm 2 mps 605 mmHg 88%
    09:00 +1°C° 0 mm 2 mps 605 mmHg 87%
    10:00 0°C° 0.1 mm 3 mps 605 mmHg 86%
    11:00 0°C° 0.1 mm 3 mps 604 mmHg 86%
    12:00 0°C° 0.1 mm 4 mps 604 mmHg 85%
    13:00 0°C° 0.1 mm 4 mps 603 mmHg 85%
    14:00 0°C° 0.1 mm 4 mps 603 mmHg 84%
    15:00 0°C° 0.1 mm 4 mps 603 mmHg 84%
    16:00 0°C° 0.1 mm 4 mps 603 mmHg 85%
    17:00 -1°C° 0.1 mm 4 mps 602 mmHg 86%
    18:00 -2°C° 0.1 mm 4 mps 602 mmHg 88%
    19:00 -1°C° 0.2 mm 3 mps 603 mmHg 88%
    20:00 -1°C° 0.2 mm 3 mps 603 mmHg 89%
    21:00 -1°C° 0.2 mm 3 mps 604 mmHg 90%
    22:00 -1°C° 0.4 mm 3 mps 604 mmHg 90%
    23:00 -1°C° 0.4 mm 2 mps 604 mmHg 90%

    26 March, Tuesday

    Time Temperature Precipitation Wind Pressure Humidity
    00:00 -2°C° 0.4 mm 2 mps 604 mmHg 90%
    01:00 -2°C° 0.3 mm 2 mps 604 mmHg 90%
    02:00 -2°C° 0.3 mm 2 mps 604 mmHg 90%
    03:00 -2°C° 0.3 mm 2 mps 604 mmHg 90%
    04:00 -2°C° 0.3 mm 2 mps 604 mmHg 90%
    05:00 -2°C° 0.3 mm 2 mps 604 mmHg 90%
    06:00 0°C° 0.3 mm 1 mps 604 mmHg 90%
    07:00 -1°C° 0.4 mm 2 mps 605 mmHg 89%
    08:00 -1°C° 0.4 mm 2 mps 605 mmHg 87%
    09:00 +1°C° 0.4 mm 2 mps 605 mmHg 85%
    10:00 +1°C° 0.1 mm 2 mps 605 mmHg 85%
    11:00 +2°C° 0.1 mm 2 mps 605 mmHg 84%
    12:00 +3°C° 0.1 mm 2 mps 605 mmHg 84%
    13:00 +3°C° 0.1 mm 2 mps 605 mmHg 84%
    14:00 +2°C° 0.1 mm 3 mps 605 mmHg 83%
    15:00 +2°C° 0.1 mm 3 mps 604 mmHg 83%
    16:00 +1°C° 0.1 mm 3 mps 604 mmHg 85%
    17:00 +2°C° 0.1 mm 2 mps 604 mmHg 86%
    18:00 +1°C° 0.1 mm 2 mps 604 mmHg 87%
    19:00 +1°C° 0.1 mm 2 mps 605 mmHg 88%
    20:00 -1°C° 0.1 mm 2 mps 605 mmHg 90%
    21:00 -1°C° 0.1 mm 2 mps 606 mmHg 91%
    22:00 -1°C° 0.1 mm 2 mps 606 mmHg 91%
    23:00 0°C° 0.1 mm 1 mps 606 mmHg 91%

    27 March, Wednesday

    Time Temperature Precipitation Wind Pressure Humidity
    00:00 0°C° 0.1 mm 1 mps 606 mmHg 91%
    01:00 0°C° 0 mm 1 mps 607 mmHg 91%
    02:00 0°C° 0 mm 1 mps 607 mmHg 91%
    03:00 0°C° 0 mm 1 mps 607 mmHg 90%
    04:00 0°C° 0 mm 1 mps 607 mmHg 90%
    05:00 -2°C° 0 mm 0 mps 608 mmHg 89%
    06:00 -2°C° 0 mm 0 mps 608 mmHg 89%
    07:00 0°C° 0 mm 1 mps 609 mmHg 85%
    08:00 +2°C° 0 mm 1 mps 610 mmHg 81%
    09:00 +3°C° 0 mm 1 mps 610 mmHg 76%
    10:00 +4°C° 0 mm 1 mps 610 mmHg 76%
    11:00 +4°C° 0 mm 1 mps 610 mmHg 76%
    12:00 +5°C° 0 mm 1 mps 610 mmHg 76%
    13:00 +5°C° 0.1 mm 1 mps 610 mmHg 75%
    14:00 +5°C° 0.1 mm 1 mps 610 mmHg 73%
    15:00 +6°C° 0.1 mm 1 mps 610 mmHg 72%
    16:00 +5°C° 0.1 mm 1 mps 610 mmHg 74%
    17:00 +4°C° 0.1 mm 1 mps 611 mmHg 76%
    18:00 +3°C° 0.1 mm 1 mps 611 mmHg 78%
    19:00 +2°C° 0.1 mm 0 mps 611 mmHg 80%
    20:00 +1°C° 0.1 mm 0 mps 611 mmHg 82%
    21:00 0°C° 0.1 mm 0 mps 611 mmHg 83%
    22:00 0°C° 0 mm 0 mps 611 mmHg 84%
    23:00 0°C° 0 mm 0 mps 611 mmHg 84%
    Show more